Location: Montreal
(45.5000°N, 73.5833°W)
Time: 17:29:16
(UTC-05:00)

Vanguard 1 - Pass Details

Date: 25 October 2017
Orbit: 650 x 3834 km, 34.2° (Epoch: 22 November)

Event Time Altitude Azimuth Distance (km) Brightness Sun altitude
Rises 07:36:15 0° 278° (W) 7,290 13.8 1.1°
Reaches altitude 10° 07:43:04 10° 264° (W) 6,634 13.7 2.3°
Maximum altitude 07:56:30 20° 227° (SW) 6,092 13.9 4.4°
Drops below altitude 10° 08:10:10 10° 190° (S) 6,649 14.5 6.6°
Sets 08:17:15 0° 175° (S) 7,294 15.0 7.7°
